Find JD2

NORAD ID: 14729 Int'l Des: 1984-012 Owner: NRO/NRL Country: US operational
LEO

Current View

Loading 3D Globe...

About JD2

JD2 (NORAD 14729) is a satellite launched Feb 5, 1984 by NRO/NRL of US. It operates in LEO orbit with a mass of 200.00 kg.

Upcoming Passes

Passes for default location (London). Set your location on the main map for personalized predictions.

Altitude History

Loading altitude history...

Two-Line Element Set

1 14729U 84012D 26194.88036576 .00002655 00000-0 33415-3 0 9990
2 14729 63.3086 322.2251 0741230 128.9983 237.9501 13.76334283347589
Epoch: Jul 13, 2026 • Age: 18 hours

Current Status

Altitude 512.5 km
Apogee / Perigee N/A
Velocity 7.86 km/s
Sub-Earth Point 62.55°N, 91.89°W
Launch Date Feb 5, 1984
Age 42.4 years
Type other

Technical Details

Classification Payload
Mass 200.00 kg
Dry Mass 200.00 kg
Total Mass 200.00 kg
Length 0.90 m
Diameter 0.40 m
Span 10.00 m
Shape Box + Ant
Manufacturer MM
Bus Type NOSS SSU
Phase Status In Orbit
Owner/State NRO/NRL/US

Most Searched